FW7241 Weather Reports


time (UTC)temp
C
wind
direction
speed
KPH
gust
KPH
rain 1hr
cm
rain 24hr
cm
rain mn
cm
humidity
%
barometer
mb
20260506212111 9 233 3.2 8.0 0.10 1.09 1.09 94 1011.9
20260506211110 9 110 4.8 14.5 0.13 1.09 1.09 95 1011.8
20260506210110 10 231 1.6 8.0 0.15 1.09 1.09 95 1011.8
20260506202110 10 212 1.6 6.4 0.18 0.99 0.99 95 1011.6
20260506201110 10 153 1.6 4.8 0.18 0.99 0.99 95 1011.5
20260506195110 10 236 3.2 14.5 0.18 0.91 0.91 95 1011.4
20260506194109 10 217 3.2 9.7 0.15 0.89 0.89 95 1011.3
20260506193109 10 172 1.6 17.7 0.15 0.84 0.84 95 1011.1
20260506192109 10 145 0.0 4.8 0.18 0.81 0.81 95 1011.0
20260506191109 10 221 1.6 4.8 0.20 0.79 0.79 95 1010.9
20260506185109 10 230 3.2 9.7 0.20 0.74 0.74 94 1010.8
20260506184109 10 205 1.6 8.0 0.23 0.71 0.71 94 1010.7
20260506183109 10 130 3.2 9.7 0.23 0.69 0.69 94 1010.6
20260506182109 10 231 3.2 9.7 0.20 0.64 0.64 94 1010.5
20260506181108 10 200 3.2 16.1 0.18 0.61 0.61 94 1010.4
20260506180113 10 210 1.6 14.5 0.18 0.56 0.56 94 1010.3
20260506175114 10 248 1.6 8.0 0.20 0.56 0.53 94 1010.2
20260506173113 10 61 1.6 12.9 0.18 0.48 0.46 94 1009.9
20260506172113 10 211 3.2 14.5 0.20 0.46 0.43 94 1009.7
20260506165113 11 224 1.6 6.4 0.18 0.36 0.33 93 1009.5
20260506164113 11 185 1.6 6.4 0.15 0.33 0.30 92 1009.5
20260506163114 11 192 3.2 9.7 0.15 0.30 0.28 92 1009.5
20260506162113 11 221 3.2 16.1 0.15 0.25 0.23 91 1009.4
20260506161112 11 147 3.2 9.7 0.15 0.23 0.23 91 1009.4
20260506160112 11 120 3.2 8.0 0.15 0.23 0.20 90 1009.4
20260506155112 11 110 1.6 9.7 0.13 0.18 0.15 90 1009.3
20260506154112 11 222 3.2 9.7 0.10 0.15 0.15 89 1009.3
20260506153112 11 193 3.2 9.7 0.08 0.15 0.13 88 1009.2
20260506151112 11 167 3.2 12.9 0.03 0.08 0.05 84 1009.1
20260506150112 11 175 4.8 14.5 0.00 0.05 0.05 83 1009.0
20260506145112 11 121 3.2 12.9 0.00 0.05 0.05 84 1009.0
20260506143112 12 169 3.2 17.7 0.00 0.05 0.05 85 1009.0
20260506142111 12 248 4.8 16.1 0.03 0.05 0.05 85 1008.9
20260506141111 12 155 6.4 22.5 0.03 0.05 0.05 85 1008.9
20260506140111 12 277 4.8 14.5 0.03 0.05 0.05 86 1008.8
20260506135111 12 124 4.8 19.3 0.03 0.38 0.05 85 1008.8
20260506134111 12 232 4.8 14.5 0.03 0.38 0.05 86 1008.8
20260506133111 12 113 4.8 16.1 0.03 0.38 0.05 86 1008.7
20260506131111 12 223 6.4 20.9 0.03 0.36 0.03 84 1008.7
20260506130111 12 48 6.4 25.7 0.03 0.36 0.03 84 1008.5
20260506125111 13 238 8.0 25.7 0.03 0.36 0.03 85 1008.3
20260506123110 13 233 8.0 27.4 0.03 0.36 0.03 85 1008.0
20260506122110 13 230 9.7 20.9 0.00 0.33 0.00 86 1007.9
20260506121110 14 247 6.4 17.7 0.00 0.33 0.00 86 1007.8
20260506115110 14 259 3.2 14.5 0.00 0.33 0.00 86 1007.7
20260506114110 14 122 3.2 16.1 0.00 0.33 0.00 84 1007.7
20260506112110 14 264 4.8 16.1 0.00 0.33 0.00 83 1007.6
20260506111110 14 271 4.8 14.5 0.00 0.33 0.00 83 1007.5
20260506110110 15 293 4.8 19.3 0.00 0.33 0.00 81 1007.5
20260506105109 15 173 6.4 19.3 0.00 0.33 0.00 79 1007.6
20260506104109 15 184 3.2 12.9 0.00 0.33 0.00 78 1007.4
20260506103109 15 207 3.2 14.5 0.00 0.33 0.00 77 1007.3
20260506102109 15 326 3.2 16.1 0.00 0.33 0.00 77 1007.3
20260506101109 15 245 3.2 9.7 0.00 0.33 0.00 77 1007.3
20260506100109 15 252 1.6 9.7 0.00 0.33 0.00 77 1007.2
20260506095109 15 198 4.8 12.9 0.00 0.33 0.00 77 1007.2
20260506094109 15 203 3.2 12.9 0.00 0.33 0.00 76 1007.1
20260506093109 15 186 1.6 8.0 0.00 0.33 0.00 76 1007.1
20260506092109 15 235 1.6 6.4 0.00 0.33 0.00 75 1007.1
20260506090108 15 212 4.8 16.1 0.00 0.33 0.00 72 1007.0
20260506085108 16 219 3.2 8.0 0.00 0.33 0.00 71 1007.0
20260506084108 16 210 3.2 6.4 0.00 0.33 0.00 73 1006.9
20260506083108 16 200 3.2 9.7 0.00 0.33 0.00 73 1006.7
20260506082108 16 261 4.8 16.1 0.00 0.33 0.00 74 1006.8
20260506081108 15 191 3.2 12.9 0.00 0.33 0.00 76 1006.8
20260506080108 15 184 3.2 12.9 0.00 0.33 0.00 75 1006.9
20260506072112 14 243 4.8 14.5 0.00 0.33 0.00 76 1006.9
20260506071112 15 343 1.6 17.7 0.00 0.33 0.00 76 1006.8
20260506070112 15 144 3.2 9.7 0.00 0.33 0.00 76 1006.8
20260506062112 13 145 1.6 12.9 0.00 0.33 0.00 79 1007.0
20260506061112 13 230 1.6 6.4 0.00 0.33 0.00 82 1007.0
20260506060112 13 214 0.0 1.6 0.00 0.33 0.00 81 1007.0
20260506050111 12 277 0.0 3.2 0.00 0.33 0.00 85 1007.1
20260506045111 11 145 0.0 4.8 0.00 0.33 0.00 85 1007.2
20260506044116 11 109 0.0 4.8 0.00 0.33 0.00 85 1007.3
20260506042111 11 148 1.6 8.0 0.00 0.33 0.00 85 1007.3
20260506041111 11 207 1.6 9.7 0.00 0.33 0.00 85 1007.2
20260506040111 11 100 1.6 8.0 0.00 0.33 0.00 85 1007.3
20260506035110 11 169 1.6 6.4 0.00 0.33 0.00 85 1007.5
20260506034110 11 124 1.6 8.0 0.00 0.33 0.00 85 1007.6
20260506033110 11 198 1.6 9.7 0.00 0.33 0.00 85 1007.6
20260506032110 11 174 0.0 4.8 0.00 0.33 0.00 87 1007.6
20260506031110 11 225 1.6 4.8 0.00 0.33 0.00 88 1007.7
20260506025110 10 211 0.0 0.0 0.00 0.33 0.00 88 1007.7
20260506024110 10 211 0.0 0.0 0.00 0.33 0.00 87 1007.9
20260506023110 11 211 0.0 0.0 0.00 0.33 0.00 86 1007.9
20260506022110 11 208 0.0 0.0 0.00 0.33 0.00 86 1008.0
20260506021109 11 213 0.0 1.6 0.00 0.33 0.00 85 1008.1
20260506020109 11 139 0.0 3.2 0.00 0.33 0.00 84 1008.1
20260506015109 11 248 0.0 3.2 0.00 0.33 0.00 84 1008.2
20260506014109 11 229 0.0 1.6 0.00 0.33 0.00 85 1008.3
20260506013109 11 133 0.0 1.6 0.00 0.33 0.00 86 1008.5
20260506012109 11 226 0.0 3.2 0.00 0.33 0.00 87 1008.6
20260506011109 11 207 0.0 0.0 0.00 0.33 0.00 87 1008.6
20260506010109 11 141 0.0 1.6 0.00 0.33 0.00 87 1008.4
20260506005109 11 221 0.0 1.6 0.00 0.33 0.00 88 1008.5
20260506004109 11 133 0.0 3.2 0.00 0.33 0.00 88 1008.4
20260506003109 11 224 0.0 3.2 0.00 0.33 0.00 89 1008.5
20260506002108 11 235 0.0 1.6 0.00 0.33 0.00 88 1008.6
20260506001108 11 251 0.0 1.6 0.00 0.33 0.00 87 1008.7
20260505235113 11 225 0.0 1.6 0.00 0.33 0.00 86 1008.9
20260505234113 11 257 0.0 6.4 0.00 0.33 0.00 86 1009.0
20260505233113 12 228 0.0 6.4 0.00 0.33 0.00 85 1009.1
20260505232113 11 242 0.0 1.6 0.00 0.33 0.00 86 1009.1
20260505231113 11 245 0.0 0.0 0.00 0.33 0.00 86 1009.1
20260505230113 12 245 0.0 3.2 0.00 0.33 0.00 85 1009.1
20260505225113 12 128 0.0 1.6 0.00 0.33 0.00 85 1009.1
20260505224113 12 252 0.0 1.6 0.00 0.33 0.00 85 1009.2
20260505223112 12 142 0.0 1.6 0.00 0.33 0.00 85 1009.3
20260505222112 12 131 0.0 4.8 0.00 0.33 0.00 86 1009.3
20260505221112 12 97 0.0 1.6 0.00 0.33 0.00 86 1009.4
20260505220112 12 237 0.0 1.6 0.00 0.33 0.00 86 1009.4
20260505215112 12 239 0.0 1.6 0.00 0.33 0.33 86 1009.4
20260505214112 12 176 0.0 3.2 0.00 0.33 0.33 86 1009.3
20260505213112 12 264 0.0 1.6 0.00 0.33 0.33 86 1009.3